Weather in Hakodate

Japan     41°46′15″N   140°43′51″E
temp.,
°C
wind,
m/s
gust,
m/s
humid.,
%
clouds,
%
prec.,
mm/h
press.,
hPa
HPBL,
m
28 november, sun
sun2800:00+3nw47825 0.0 1025436
03:00+3nw45805 0.0 1026282
06:00+3nw45682 0.0 1028298
09:00+6nw37605 0.0 1029498
12:00+8wnw78535 0.0 10281507
15:00+7wnw78604 0.0 1028932
18:00+5wnw47643 0.0 1029660
21:00+5wnw47695 0.0 1029652
29 november, mon
mon2900:00+6w510715 0.0 1028774
03:00+6w61074100 0.0 1027909
06:00+7w6117499 0.0 1026860
09:00+10wsw81267100 0.0 10251424
12:00+11wsw91366100 0.1 10241659
15:00+11wsw10136696 0.1 10231307
18:00+11wsw91374100 0.1 10221139
21:00+11wsw91483100 1.9 10221390
30 november, tue
tue3000:00+10w611809 1.1 1022881
03:00+8wnw488194 1.2 1022364
06:00+7nw358394 0.0 1022223
09:00+8n1177100 0.0 1022131
12:00+11ssw4779100 0.1 1019671
15:00+12se346725 0.1 1016568
18:00+10e356990 0.0 1014286
21:00+10e3569100 0.0 1010209
1 december, wed
wed100:00+9ne2265100 0.0 1006129
03:00+10s2372100 0.0 1002214
06:00+10ne3385100 1.3 996151
09:00+12sw101693100 10.3 9931139
12:00+9sw142378100 4.5 9921981
15:00+6wsw14226880 4.7 9931709
18:00+4wsw142077100 0.2 9951793
21:00+2w12198581 1.8 9961837
2 december, thu
thu200:00+1wsw14198193 1.8 9971963
03:000w13198079 3.5 10002044
06:000w12197575 0.6 10032008
09:00+2w12196575 0.8 10072198
12:00+4w12226487 0.1 10082435
15:00+4w9168122 2.6 10101377
18:00+3wnw4886100 0.1 1010613
21:00+3se1397100 2.0 1011386